Regional Weather Roundup
Issued by NWS

Home | Current Version | Previous Version | Graphics & Text | Print | Product List | Glossary On
Versions: 1 2 3 4 5 6 7 8 9 10 11 12 13 14 15 16 17 18 19 20 21 22 23 24 25 26 27 28 29 30 31 32 33 34 35 36 37 38 39 40 41 42 43 44 45 46 47 48 49 50
000
ASUS43 KIND 292359
RWRIN

WEATHER ROUNDUP FOR INDIANA
NATIONAL WEATHER SERVICE INDIANAPOLIS IN
800 PM EDT FRI APR 29 2016

NOTE: "FAIR" INDICATES FEW OR NO CLOUDS BELOW 12,000 FEET WITH NO
SIGNIFICANT WEATHER AND/OR OBSTRUCTIONS TO VISIBILITY.

* - STATION DOES NOT REPORT WEATHER SUCH AS PRECIPITATION OR FOG.

+ - STATION NOT QUALITY CONTROLLED BY THE NATIONAL WEATHER SERVICE.
    USE DATA WITH CAUTION...ESPECIALLY DEWPOINT AND RELATIVE
    HUMIDITY OBSERVATIONS.

INZ001>003-010>013-019-020-300100-
NORTHWEST INDIANA

CITY           SKY/WX    TMP DP  RH WIND       PRES   REMARKS
GARY /AIRPORT/ CLOUDY    45  45 100 N6        30.14S
RENSSELAER +   CLOUDY    50  45  81 N10       30.09R

$$

LMZ046-743>745-300100-
SOUTHERN LAKE MICHIGAN

STATION/POSITION TIME  TEMP    WIND        PRES    WAVE
                       AIR SEA DIR/SP/G            HT
                 (UTC) (F)     (DEG/KT/KT) (MB)    (FT)
BURNS HARBOR     2340   42      10/ 10/ 11 1020.3F
MICHIGAN CITY    2300   42     350/  9/ 11   N/A

$$

INZ004-005-014>016-021>024-300100-
NORTH CENTRAL INDIANA

CITY           SKY/WX    TMP DP  RH WIND       PRES   REMARKS
ELKHART        CLOUDY    52  46  82 CALM      30.10S
GOSHEN         CLOUDY    52  45  77 E5        30.09S
6HR MIN TEMP:  52; 6HR MAX TEMP:  54;

SOUTH BEND     CLOUDY    49  45  86 N6        30.10F
6HR MIN TEMP:  47; 6HR MAX TEMP:  51;


$$

INZ006>009-017-018-025>027-300100-
NORTHEAST INDIANA

CITY           SKY/WX    TMP DP  RH WIND       PRES   REMARKS
ANGOLA *+      CLOUDY    54  45  71 NW3       30.09F
FORT WAYNE     CLOUDY    53  45  74 N6        30.09F
6HR MIN TEMP:  51; 6HR MAX TEMP:  54;


$$

INZ028-029-035-036-043>045-051>053-300100-
WEST CENTRAL INDIANA

CITY           SKY/WX    TMP DP  RH WIND       PRES   REMARKS
CRAWFORDSVL +  CLOUDY    55  48  77 N5        30.06R
6HR MIN TEMP:  55; 6HR MAX TEMP:  59;

GREENCASTLE +  PTCLDY    59  52  77 NE5       30.05R
LAFAYETTE      CLOUDY    53  46  77 NE6       30.07R HAZE
6HR MIN TEMP:  53; 6HR MAX TEMP:  58;

TERRE HAUTE    CLOUDY    63  50  62 N6        30.04R
6HR MIN TEMP:  63; 6HR MAX TEMP:  66;


$$

INZ030>032-037>040-046>048-054>057-064-065-300100-
CENTRAL INDIANA

CITY           SKY/WX    TMP DP  RH WIND       PRES   REMARKS
COLUMBUS       CLEAR     63  50  63 NE5       30.04R
INDIANAPOLIS   CLOUDY    61  47  59 NE7       30.04R
6HR MIN TEMP:  61; 6HR MAX TEMP:  64;

-EAGLE CREEK   CLOUDY    61  47  59 N5        30.04R
6HR MIN TEMP:  60; 6HR MAX TEMP:  63;

KOKOMO *+      PTCLDY    55  45  67 N7        30.07R
6HR MIN TEMP:  55; 6HR MAX TEMP:  59;

SHELBYVILLE    PTCLDY    63  48  58 NE7       30.04R
6HR MIN TEMP:  63; 6HR MAX TEMP:  66;


$$

INZ033-034-041-042-049-050-058-059-300100-
EAST CENTRAL INDIANA

CITY           SKY/WX    TMP DP  RH WIND       PRES   REMARKS
MUNCIE         CLOUDY    58  47  66 NE9       30.06S
6HR MIN TEMP:  58; 6HR MAX TEMP:  62;


$$

INZ060-061-067>069-081>083-085>088-300100-
SOUTHWEST INDIANA

CITY           SKY/WX    TMP DP  RH WIND       PRES   REMARKS
EVANSVILLE     CLOUDY    64  53  67 NE7       29.99F
6HR MIN TEMP:  64; 6HR MAX TEMP:  67;

HUNTINGBURG *+ CLOUDY    63  54  72 NE5       30.01S
6HR MIN TEMP:  63; 6HR MAX TEMP:  66;


$$

INZ062-063-066-070>080-084-089>092-300100-
SOUTH CENTRAL AND SOUTHEAST INDIANA

CITY           SKY/WX    TMP DP  RH WIND       PRES   REMARKS
BLOOMINGTON    CLOUDY    64  49  57 N6        30.02R
6HR MIN TEMP:  63; 6HR MAX TEMP:  67;

MADISON *+     CLOUDY    63  48  59 CALM      30.05R
SEYMOUR +      CLOUDY    66  52  59 NE5       30.02S

$$





USA.gov is the U.S. government's official web portal to all federal, state and local government web resources and services.